Hourly Data Report for September 27, 2004

SHERBROOKE A
QUEBEC

45°26'00.000" N
71°41'00.000" W
241.40 m
7028124
71610
YSC

Download Data

Hourly Data (September 2004)
Hourly Data Report for September 27, 2004
TIME
LST
Temp Definition
°C
Dew Point Definition
°C
Rel Hum Definition
%
Precip. Amount Definition
mm

Wind Dir Definition
10's deg

Wind Spd Definition
km/h
Visibility Definition
km
Stn Press Definition
kPa
Hmdx Definition


Wind Chill Definition


Weather Definition


00:00 6.5 5.5 93   9 4 15.0 99.14      
01:00 6.1 5.1 93     0 15.0 99.14      
02:00 5.0 4.3 95     0 9.7 99.12      
03:00 4.7 3.5 92   12 4 15.0 99.12      
04:00 4.2 3.6 96     0 6.4 99.15      
05:00 3.8 2.8 93   13 4 15.0 99.19      
06:00 4.1 3.4 95     0 9.7 99.20      
07:00 8.2 6.9 92   9 4 24.1 99.22     Clear
08:00 11.4 8.8 84     0 24.1 99.21     Clear
09:00 15.4 10.4 72   19 4 24.1 99.16     Clear
10:00 19.4 11.3 59   23 7 24.1 99.10     Clear
11:00 20.7 11.3 55   24 9 24.1 99.05     Clear
12:00 21.5 10.9 51   23 17 24.1 99.00     Mainly Clear
13:00 22.1 11.5 51   22 11 24.1 98.93     Mainly Clear
14:00 22.4 10.9 48   26 7 24.1 98.87     Mainly Clear
15:00 22.6 10.0 45   24 15 24.1 98.81     Mainly Clear
16:00 22.1 9.5 45   24 13 24.1 98.78     Mainly Clear
17:00 20.8 9.7 49   23 7 15.0 98.77      
18:00 16.6 10.7 68   22 6 15.0 98.77      
19:00 13.1 9.4 78   17 11 15.0 98.75      
20:00 10.9 9.7 92     0 15.0 98.75      
21:00 10.1 9.1 93     0 15.0 98.71      
22:00 9.6 8.8 95   10 4 15.0 98.70      
23:00 8.6 7.6 93     0 15.0 98.66      

Notes on Data Quality.

Legend

  • E = Estimated
  • M = Missing
  • NA = Not Available*
  • [empty] = Indicates an unobserved value
Date modified: